Wayne, NE

5:34 PM CST on February 05, 2016 (GMT -0600)
Wayne Municipal

Weather History for KLCG - August, 2014

Change the Weather History Date:

Thursday, August 7, 2014

  Actual Average (KOFK) Record (KOFK)
Temperature  
Mean Temperature 68 °F 74 °F  
Max Temperature 70 °F 85 °F 100 °F (1980)
Min Temperature 65 °F 63 °F 46 °F (1989)
Degree Days  
Heating Degree Days 0 0  
Month to date heating degree days 0  
Since 1 June heating degree days 34  
Since 1 July heating degree days 4  
Cooling Degree Days 2 9  
Month to date cooling degree days 68  
Year to date cooling degree days 629  
Since 1 June cooling degree days 568  
Growing Degree Days 18 (Base 50)    
Moisture  
Dew Point 66 °F    
Average Humidity 95    
Maximum Humidity 98    
Minimum Humidity 92    
Precipitation  
Precipitation 0.05 in 0.11 in 1.90 in (1912)
Month to date precipitation 0.76  
Year to date precipitation 18.04  
Snow  
Snow 0.00 in 0.00 in - ()
Month to date snowfall 0.0  
Since 1 July snowfall 0.0  
Snow Depth -    
Sea Level Pressure  
Sea Level Pressure 29.98 in    
Wind  
Wind Speed 6 mph (NE)    
Max Wind Speed 9 mph    
Max Gust Speed -    
Visibility 6 miles    
Events Rain    
T = Trace of Precipitation, MM = Missing Value Source: NWS Daily Summary

Daily Weather History Graph

Daily Weather History Graph

Search for Another Location

Airport or City:

Trip Planner

Search our weather history database for the weather conditions in past years. The results will help you decide how hot, cold, wet, or windy it might be!

Date:

Astronomy

Aug. 07, 2014 Rise Set
Actual Time 6:26 AM CDT 8:39 PM CDT
Civil Twilight 5:55 AM CDT 9:10 PM CDT
Nautical Twilight 5:17 AM CDT 9:48 PM CDT
Astronomical Twilight 4:35 AM CDT 10:30 PM CDT
Moon 5:58 PM CDT (8/7) 2:57 AM CDT (8/7)
Length of Visible Light 15h 14m
Length of Day
14h 12m
Waxing Gibbous, 87% of the Moon is Illuminated
Aug 7
Waxing Gibbous
Aug 10
Full
Aug 17
Last Quarter
Aug 25
New
Sep 2
First Quarter

Hourly Weather History & Observations

Time (CDT) Temp. Dew Point Humidity Pressure Visibility Wind Dir Wind Speed Gust Speed Precip Events Conditions
12:15 AM 67.1 °F 66.0 °F 96% 30.00 in 7.0 mi ENE 3.5 mph - N/A   Overcast
12:35 AM 67.1 °F 66.0 °F 96% 30.00 in 7.0 mi East 5.8 mph - N/A   Overcast
12:55 AM 67.1 °F 65.7 °F 95% 30.00 in 7.0 mi East 6.9 mph - N/A   Overcast
1:15 AM 66.7 °F 65.7 °F 96% 29.99 in 4.0 mi East 8.1 mph - N/A Rain Light Rain
1:35 AM 66.4 °F 65.3 °F 96% 29.99 in 4.0 mi ENE 9.2 mph - 0.01 in   Overcast
1:55 AM 66.0 °F 64.6 °F 95% 29.99 in 10.0 mi East 9.2 mph - 0.01 in   Overcast
2:15 AM 65.7 °F 64.2 °F 95% 29.98 in 10.0 mi ENE 8.1 mph - N/A   Overcast
2:35 AM 65.7 °F 64.4 °F 96% 29.98 in 7.0 mi ENE 5.8 mph - N/A   Overcast
2:55 AM 65.7 °F 64.2 °F 95% 29.99 in 10.0 mi East 3.5 mph - N/A   Overcast
3:15 AM 65.7 °F 64.4 °F 96% 29.99 in 5.0 mi NE 3.5 mph - N/A   Overcast
3:35 AM 65.8 °F 63.9 °F 93% 29.99 in 5.0 mi East 6.9 mph - N/A   Overcast
3:55 AM 65.7 °F 64.4 °F 96% 29.99 in 3.0 mi NE 3.5 mph - N/A   Overcast
4:15 AM 65.5 °F 64.6 °F 97% 29.99 in 2.5 mi NNE 4.6 mph - N/A   Overcast
4:35 AM 65.5 °F 64.6 °F 97% 29.99 in 2.5 mi NNE 4.6 mph - N/A   Drizzle
4:55 AM 65.5 °F 64.8 °F 98% 29.99 in 3.0 mi NE 4.6 mph - N/A   Drizzle
5:15 AM 65.5 °F 64.8 °F 98% 29.98 in 2.5 mi NE 5.8 mph - 0.01 in   Drizzle
5:35 AM 65.5 °F 64.8 °F 98% 29.98 in 3.0 mi NE 5.8 mph - 0.01 in   Overcast
5:55 AM 65.5 °F 64.8 °F 98% 29.98 in 3.0 mi NE 5.8 mph - 0.01 in   Overcast
6:15 AM 65.7 °F 64.9 °F 98% 29.99 in 3.0 mi ENE 5.8 mph - N/A Rain Rain
6:35 AM 65.7 °F 64.8 °F 97% 29.98 in 4.0 mi NE 8.1 mph - 0.02 in   Drizzle
6:55 AM 65.5 °F 64.6 °F 97% 29.98 in 3.0 mi ENE 6.9 mph - 0.02 in   Light Drizzle
7:15 AM 65.7 °F 64.8 °F 97% 29.98 in 3.0 mi ENE 8.1 mph - N/A   Overcast
7:35 AM 65.7 °F 64.6 °F 96% 29.99 in 7.0 mi ENE 5.8 mph - N/A   Overcast
7:55 AM 66.0 °F 64.6 °F 95% 29.99 in 10.0 mi ENE 4.6 mph - N/A   Overcast
8:15 AM 65.8 °F 64.6 °F 96% 29.99 in 3.0 mi NE 8.1 mph - N/A   Overcast
8:35 AM 65.7 °F 64.6 °F 96% 29.99 in 3.0 mi ENE 8.1 mph - N/A   Overcast
8:55 AM 66.2 °F 64.6 °F 94% 29.99 in 5.0 mi ENE 9.2 mph - N/A   Overcast
9:15 AM 66.2 °F 64.6 °F 94% 29.99 in 7.0 mi ENE 5.8 mph - N/A   Overcast
9:35 AM 66.7 °F 65.1 °F 95% 29.99 in 7.0 mi NE 5.8 mph - 0.01 in   Overcast
9:55 AM 66.7 °F 65.3 °F 95% 29.99 in 5.0 mi NE 4.6 mph - 0.01 in   Overcast
10:15 AM 66.6 °F 64.9 °F 95% 29.99 in 5.0 mi NNE 6.9 mph - N/A   Overcast
10:35 AM 66.9 °F 65.7 °F 96% 29.99 in 4.0 mi NE 8.1 mph - N/A   Overcast
10:55 AM 67.1 °F 65.3 °F 94% 29.99 in 7.0 mi ENE 8.1 mph - N/A   Overcast
11:15 AM 67.1 °F 65.3 °F 94% 29.99 in 5.0 mi NE 8.1 mph - N/A   Overcast
11:35 AM 67.1 °F 65.5 °F 95% 29.99 in 5.0 mi NNE 9.2 mph - N/A   Overcast
11:55 AM 67.3 °F 66.0 °F 96% 29.99 in 4.0 mi NE 6.9 mph - N/A   Overcast
12:15 PM 67.5 °F 66.2 °F 96% 29.99 in 4.0 mi NNE 5.8 mph - N/A   Overcast
12:35 PM 68.0 °F 66.4 °F 95% 29.99 in 4.0 mi NNE 8.1 mph - N/A   Overcast
12:55 PM 68.2 °F 66.4 °F 94% 29.99 in 5.0 mi NNE 6.9 mph - N/A   Overcast
1:15 PM 68.5 °F 66.7 °F 94% 29.99 in 5.0 mi NNE 5.8 mph - N/A   Overcast
1:35 PM 68.9 °F 67.3 °F 95% 29.98 in 5.0 mi NE 6.9 mph - N/A   Overcast
1:55 PM 69.4 °F 67.5 °F 93% 29.98 in 7.0 mi NNE 4.6 mph - N/A   Overcast
2:15 PM 70.2 °F 67.6 °F 92% 29.98 in 10.0 mi NNE 8.1 mph - N/A   Overcast
2:35 PM 69.8 °F 67.6 °F 93% 29.98 in 10.0 mi NNE 6.9 mph - N/A   Overcast
2:55 PM 69.3 °F 67.8 °F 95% 29.98 in 5.0 mi North 5.8 mph - N/A   Overcast
3:15 PM 69.3 °F 68.0 °F 96% 29.97 in 3.0 mi NNE 8.1 mph - N/A   Overcast
3:35 PM 69.3 °F 68.0 °F 96% 29.97 in 2.5 mi NE 6.9 mph - N/A Rain Light Rain
3:55 PM 69.8 °F 68.2 °F 95% 29.97 in 5.0 mi NE 9.2 mph - N/A   Overcast
4:15 PM 70.2 °F 68.2 °F 93% 29.97 in 10.0 mi ENE 8.1 mph - N/A   Overcast
4:35 PM 70.0 °F 68.0 °F 93% 29.97 in 10.0 mi NE 8.1 mph - N/A   Overcast
4:55 PM 70.0 °F 68.0 °F 93% 29.97 in 10.0 mi NE 8.1 mph - N/A   Overcast
5:15 PM 70.0 °F 67.8 °F 93% 29.97 in 10.0 mi ENE 8.1 mph - N/A   Overcast
5:35 PM 70.3 °F 68.2 °F 93% 29.96 in 10.0 mi NE 8.1 mph - N/A   Overcast
5:55 PM 70.0 °F 68.2 °F 94% 29.96 in 10.0 mi NE 8.1 mph - N/A   Overcast
6:15 PM 69.8 °F 68.0 °F 94% 29.96 in 10.0 mi NE 5.8 mph - N/A   Overcast
6:35 PM 69.8 °F 68.2 °F 95% 29.96 in 7.0 mi NE 8.1 mph - N/A   Overcast
6:55 PM 69.4 °F 68.4 °F 96% 29.95 in 7.0 mi NE 5.8 mph - N/A   Overcast
7:15 PM 69.4 °F 68.4 °F 96% 29.95 in 5.0 mi NNE 5.8 mph - N/A   Overcast
7:35 PM 69.4 °F 68.4 °F 96% 29.96 in 5.0 mi NNE 5.8 mph - N/A   Overcast
7:55 PM 69.3 °F 68.2 °F 96% 29.96 in 2.5 mi NE 5.8 mph - N/A   Overcast
8:15 PM 69.3 °F 68.4 °F 97% 29.96 in 2.5 mi ENE 5.8 mph - N/A   Overcast
8:35 PM 69.3 °F 68.4 °F 97% 29.97 in 3.0 mi ENE 4.6 mph - N/A   Overcast
8:55 PM 69.1 °F 68.2 °F 97% 29.97 in 7.0 mi ENE 3.5 mph - N/A   Overcast
9:15 PM 69.1 °F 68.2 °F 97% 29.97 in 4.0 mi ENE 4.6 mph - N/A   Overcast
9:35 PM 69.1 °F 68.2 °F 97% 29.95 in 7.0 mi East 9.2 mph - N/A   Overcast
9:55 PM 68.9 °F 68.0 °F 97% 29.97 in 10.0 mi East 8.1 mph - N/A   Overcast
10:15 PM 68.9 °F 67.8 °F 96% 29.97 in 10.0 mi East 6.9 mph - N/A   Overcast
10:35 PM 68.9 °F 67.5 °F 95% 29.97 in 10.0 mi East 6.9 mph - N/A   Overcast
10:55 PM 68.9 °F 67.5 °F 95% 29.97 in 10.0 mi East 8.1 mph - N/A   Overcast
11:15 PM 68.7 °F 67.5 °F 96% 29.98 in 10.0 mi East 6.9 mph - N/A   Overcast
11:35 PM 68.5 °F 67.3 °F 96% 29.99 in 10.0 mi East 5.8 mph - N/A   Overcast
11:55 PM 68.4 °F 67.5 °F 97% 29.99 in 7.0 mi East 5.8 mph - N/A Rain Light Rain